Flag Weather past 2 weeks in Fairbanks, Alaska, U.S.A.

Now
12 °F

Clear.


Feels Like: -1 °F
Forecast: -11 / -4 °F
Wind: 9 mph from East

Location: Wainwright U. S. Army Airfield

Current Time: Nov 22, 2014 at 1:44:37 AM

Latest Report: Nov 22, 2014 at 12:56 AM


Visibility: 10 mi

Pressure: 29.31 "Hg

Humidity: 48%

Dew point: -4 °F

Location of FairbanksLocation

Historic Weather in Fairbanks — Graph

°F

Fairbanks temperature yesterday

Maximum temperature yesterday: 21 °F (at 1:55 PM)
Minimum temperature yesterday: 0 °F (at 5:56 AM)
Average temperature yesterday: 11 °F

Past Weeks' High & Low Weather Summary

 TemperatureHumidityPressure
High38 °F (Nov 10, 3:56 AM)93% (Nov 13, 4:55 PM)30.31 "Hg (Nov 13, 4:55 PM)
Low-3 °F (Nov 16, 7:56 AM)48% (Nov 22, 12:56 AM)29.27 "Hg (Nov 21, 4:55 PM)
Average12 °F80%29.89 "Hg
* Reported Nov 7 1:56 AM — Nov 22 12:56 AM, Fairbanks, Weather by CustomWeather, © 2014

Note: Actual official high and low records may vary slightly from our data, if they occured in-between our weather recording intervals... More about our weather records

Advertising

Fairbanks weather history for previous 24 hours

 ConditionsComfort  
Time TempWeatherWind HumidityBarometerVisibility
12:56 AM
Nov 22
12 °FClear.9 mph48%29.31 "Hg10 mi
11:56 PM
Nov 21
11 °FClear.14 mph53%29.31 "Hg10 mi
10:56 PM11 °FClear.9 mph53%29.30 "Hg10 mi
9:56 PM12 °FClear.6 mph53%29.29 "Hg10 mi
7:55 PM14 °FClear.8 mph57%29.29 "Hg7 mi
6:55 PM16 °FPassing clouds.8 mph53%29.28 "Hg7 mi
5:55 PM16 °FPassing clouds.8 mph57%29.28 "Hg7 mi
4:55 PM18 °FPassing clouds.12 mph62%29.27 "Hg25 mi
3:55 PM18 °FPassing clouds.7 mph68%29.27 "Hg85 mi
2:55 PM19 °FScattered clouds.7 mph63%29.28 "Hg85 mi
1:55 PM21 °FScattered clouds.12 mph63%29.28 "Hg85 mi
12:55 PM18 °FScattered clouds.7 mph73%29.29 "Hg85 mi
11:55 AM18 °FScattered clouds.8 mph73%29.31 "Hg85 mi
10:55 AM16 °FScattered clouds.8 mph73%29.31 "Hg85 mi
9:55 AM12 °FScattered clouds.3 mph79%29.32 "Hg85 mi
8:55 AM9 °FPassing clouds.No wind78%29.32 "Hg25 mi
7:55 AM3 °FPassing clouds.3 mph85%29.32 "Hg10 mi
6:55 AM3 °FPassing clouds.6 mph85%29.32 "Hg10 mi
5:56 AM0 °FClear.No wind79%29.33 "Hg10 mi
4:56 AM1 °FClear.No wind79%29.34 "Hg10 mi
3:56 AM2 °FClear.No wind80%29.34 "Hg10 mi
2:56 AM1 °FClear.No wind83%29.35 "Hg10 mi
1:56 AM3 °FClear.No wind79%29.36 "Hg10 mi
Weather by CustomWeather, © 2014

See weather overviewHow to use our weather pages